Appleton, WI

10:05 PM CDT on May 25, 2017 (GMT -0500)
Outagamie County Regional

Weather History for KATW - April, 2014

Change the Weather History Date:

Saturday, April 19, 2014

  Actual Average Record
Temperature  
Mean Temperature 44 °F -  
Max Temperature 55 °F 56 °F 83 °F (1985)
Min Temperature 32 °F 38 °F 26 °F (1988)
Degree Days  
Heating Degree Days 22    
Moisture  
Dew Point 29 °F    
Average Humidity 66    
Maximum Humidity 87    
Minimum Humidity 41    
Precipitation  
Precipitation 0.00 in - - ()
Sea Level Pressure  
Sea Level Pressure 30.33 in    
Wind  
Wind Speed 9 mph (ESE)    
Max Wind Speed 16 mph    
Max Gust Speed 23 mph    
Visibility 10 miles    
Events      
Averages and records for this station are not official NWS values.
T = Trace of Precipitation, MM = Missing Value Source: NWS Daily Summary

Daily Weather History Graph

Daily Weather History Graph

Search for Another Location

Airport or City:

Trip Planner

Search our weather history database for the weather conditions in past years. The results will help you decide how hot, cold, wet, or windy it might be!

Date:

Astronomy

Apr. 19, 2014 Rise Set
Actual Time 6:03 AM CDT 7:43 PM CDT
Civil Twilight 5:33 AM CDT 8:14 PM CDT
Nautical Twilight 4:56 AM CDT 8:51 PM CDT
Astronomical Twilight 4:16 AM CDT 9:31 PM CDT
Moon No Moon Rise 9:16 AM CDT (4/19)
Length of Visible Light 14h 40m
Length of Day
13h 39m
Waning Gibbous, 78% of the Moon is Illuminated
Apr 19
Waning Gibbous
Apr 22
Last Quarter
Apr 29
New
May 6
First Quarter
May 14
Full

Hourly Weather History & Observations

Time (CDT) Temp. Windchill Dew Point Humidity Pressure Visibility Wind Dir Wind Speed Gust Speed Precip Events Conditions
12:15 AM 33.8 °F 27.7 °F 24.8 °F 70% 30.39 in 10.0 mi East 6.9 mph - N/A   Clear
12:35 AM 33.8 °F 27.7 °F 26.6 °F 75% 30.40 in 10.0 mi ESE 6.9 mph - N/A   Clear
12:55 AM 33.8 °F 27.7 °F 26.6 °F 75% 30.40 in 10.0 mi East 6.9 mph - N/A   Clear
1:15 AM 33.8 °F 28.6 °F 26.6 °F 75% 30.40 in 10.0 mi East 5.8 mph - N/A   Clear
1:35 AM 33.8 °F 27.7 °F 26.6 °F 75% 30.40 in 10.0 mi East 6.9 mph - N/A   Clear
1:55 AM 33.8 °F 27.0 °F 26.6 °F 75% 30.39 in 10.0 mi East 8.1 mph - N/A   Clear
2:15 AM 33.8 °F 26.4 °F 26.6 °F 75% 30.40 in 10.0 mi East 9.2 mph - N/A   Clear
2:35 AM 33.8 °F 26.4 °F 26.6 °F 75% 30.41 in 10.0 mi East 9.2 mph - N/A   Clear
2:55 AM 32.0 °F 24.2 °F 26.6 °F 80% 30.41 in 10.0 mi ESE 9.2 mph - N/A   Clear
3:15 AM 32.0 °F 24.2 °F 28.4 °F 87% 30.42 in 10.0 mi East 9.2 mph - N/A   Clear
3:35 AM 32.0 °F 25.6 °F 26.6 °F 80% 30.42 in 10.0 mi ESE 6.9 mph - N/A   Clear
3:55 AM 32.0 °F 27.5 °F 26.6 °F 80% 30.42 in 10.0 mi East 4.6 mph - N/A   Clear
4:15 AM 32.0 °F 27.5 °F 26.6 °F 80% 30.42 in 10.0 mi East 4.6 mph - N/A   Clear
4:35 AM 32.0 °F 25.6 °F 26.6 °F 80% 30.41 in 10.0 mi East 6.9 mph - N/A   Clear
4:55 AM 32.0 °F 26.4 °F 26.6 °F 80% 30.41 in 10.0 mi East 5.8 mph - N/A   Clear
5:15 AM 32.0 °F 26.4 °F 26.6 °F 80% 30.41 in 10.0 mi East 5.8 mph - N/A   Clear
5:20 AM 32.0 °F 25.6 °F 26.6 °F 80% 30.41 in 10.0 mi East 6.9 mph - N/A   Scattered Clouds
7:45 AM 33.8 °F 27.0 °F 26.6 °F 75% 30.42 in 10.0 mi ESE 8.1 mph - N/A   Scattered Clouds
8:45 AM 37.4 °F 29.3 °F 28.4 °F 70% 30.41 in 10.0 mi ESE 12.7 mph - N/A   Scattered Clouds
9:45 AM 39.2 °F 30.5 °F 28.4 °F 65% 30.38 in 10.0 mi SE 16.1 mph - N/A   Scattered Clouds
10:45 AM 41.0 °F 32.8 °F 28.4 °F 61% 30.37 in 10.0 mi SE 16.1 mph - N/A   Scattered Clouds
11:45 AM 44.6 °F 38.4 °F 30.2 °F 57% 30.34 in 10.0 mi SE 12.7 mph 21.9 mph N/A   Mostly Cloudy
12:45 PM 48.2 °F - 30.2 °F 50% 30.32 in 10.0 mi SSE 12.7 mph 20.7 mph N/A   Mostly Cloudy
1:45 PM 51.8 °F - 30.2 °F 44% 30.30 in 10.0 mi SSE 15.0 mph 21.9 mph N/A   Mostly Cloudy
2:45 PM 51.8 °F - 30.2 °F 44% 30.26 in 10.0 mi SE 16.1 mph - N/A   Mostly Cloudy
3:45 PM 53.6 °F - 32.0 °F 44% 30.25 in 10.0 mi SSE 15.0 mph 20.7 mph N/A   Mostly Cloudy
4:45 PM 55.4 °F - 32.0 °F 41% 30.22 in 10.0 mi SE 15.0 mph 23.0 mph N/A   Mostly Cloudy
5:45 PM 55.4 °F - 33.8 °F 44% 30.21 in 10.0 mi SE 13.8 mph - N/A   Mostly Cloudy
7:45 PM 51.8 °F - 32.0 °F 47% 30.17 in 10.0 mi SE 11.5 mph - N/A   Mostly Cloudy
8:45 PM 50.0 °F - 32.0 °F 50% 30.19 in 10.0 mi SSE 11.5 mph - N/A   Mostly Cloudy
9:45 PM 48.2 °F - 35.6 °F 62% 30.19 in 10.0 mi SSE 11.5 mph - N/A   Mostly Cloudy
10:45 PM 48.2 °F - 35.6 °F 62% 30.18 in 10.0 mi SSE 13.8 mph - N/A   Mostly Cloudy
11:15 PM 50.0 °F - 35.6 °F 58% 30.17 in 10.0 mi SSE 11.5 mph - N/A   Overcast
11:35 PM 50.0 °F - 33.8 °F 54% 30.16 in 10.0 mi SSE 11.5 mph - N/A   Overcast
11:55 PM 50.0 °F - 33.8 °F 54% 30.16 in 10.0 mi SSE 13.8 mph - N/A   Overcast